Location: Peterborough
(44.3091°N, 78.3197°W)
Time: 16:58:27
(UTC-04:00)

Transit 4A - Pass Details

Date: 29 March 2023
Orbit: 864 x 980 km, 66.8° (Epoch: 04 June)

Event Time Altitude Azimuth Distance (km) Brightness Sun altitude
Rises 13:05:31 0° 333° (NNW) 3,541 10.6 49.1°
Reaches altitude 10° 13:09:08 10° 354° (N) 2,622 10.0 49.1°
Maximum altitude 13:12:48 16° 32° (NNE) 2,230 9.7 49.1°
Drops below altitude 10° 13:16:31 10° 69° (ENE) 2,666 10.3 49.2°
Sets 13:20:13 0° 90° (E) 3,631 11.0 49.2°
